NKS6752 KFLL-KJAX

Flight info

Callsign NKS6752
Flight time 0h 53m
Altitude 30000
Route KFLL/10L N0450F300 FRSBE2 STYMY DCT ORL/N0446F310 DCT HAINY QUBEN2 KJAX/14
Aircraft A320/M-SDE3FGHIRWY/LB1

Departure

Time 2026-05-03 21:39
Airport Fort Lauderdale Hollywood International Airport (KFLL)

Arrival

Time 2026-05-03 22:32
Airport Jacksonville International Airport (KJAX)
Time Latitude Longitude Altitude Speed Heading
2026-05-03 20:47 26.07343 -80.14604 19 ft 0 kts 208°
2026-05-03 20:53 26.07346 -80.14602 19 ft 2 kts 208°
2026-05-03 20:54 26.07361 -80.14593 22 ft 2 kts 208°
2026-05-03 20:54 26.07391 -80.14576 20 ft 2 kts 208°
2026-05-03 20:54 26.07405 -80.14567 20 ft 2 kts 208°
2026-05-03 20:55 26.07420 -80.14559 22 ft 2 kts 208°
2026-05-03 20:55 26.07434 -80.14550 21 ft 2 kts 208°
2026-05-03 20:55 26.07449 -80.14541 21 ft 2 kts 208°
2026-05-03 20:55 26.07463 -80.14533 22 ft 2 kts 208°
2026-05-03 20:56 26.07478 -80.14524 22 ft 2 kts 226°
2026-05-03 20:56 26.07488 -80.14508 20 ft 2 kts 261°
2026-05-03 20:56 26.07488 -80.14505 20 ft 0 kts 269°
2026-05-03 21:09 26.07489 -80.14564 20 ft 16 kts 270°
2026-05-03 21:09 26.07489 -80.14709 18 ft 21 kts 270°
2026-05-03 21:09 26.07490 -80.14887 15 ft 22 kts 271°
2026-05-03 21:10 26.07492 -80.15066 15 ft 24 kts 270°
2026-05-03 21:10 26.07489 -80.15266 11 ft 24 kts 271°
2026-05-03 21:10 26.07492 -80.15460 12 ft 26 kts 270°
2026-05-03 21:10 26.07493 -80.15650 14 ft 24 kts 270°
2026-05-03 21:11 26.07495 -80.15831 15 ft 22 kts 271°
2026-05-03 21:11 26.07499 -80.16007 18 ft 23 kts 267°
2026-05-03 21:11 26.07496 -80.16142 20 ft 16 kts 270°
2026-05-03 21:11 26.07496 -80.16248 19 ft 13 kts 270°
2026-05-03 21:12 26.07497 -80.16328 18 ft 4 kts 270°
2026-05-03 21:12 26.07497 -80.16352 18 ft 0 kts 270°
2026-05-03 21:13 26.07497 -80.16389 18 ft 13 kts 270°
2026-05-03 21:13 26.07497 -80.16438 18 ft 0 kts 271°
2026-05-03 21:15 26.07498 -80.16455 19 ft 5 kts 271°
2026-05-03 21:15 26.07498 -80.16482 19 ft 0 kts 270°
2026-05-03 21:16 26.07498 -80.16483 19 ft 1 kts 270°
2026-05-03 21:16 26.07498 -80.16520 19 ft 3 kts 270°
2026-05-03 21:16 26.07498 -80.16536 19 ft 0 kts 270°
2026-05-03 21:23 26.07498 -80.16544 19 ft 6 kts 270°
2026-05-03 21:23 26.07498 -80.16590 18 ft 5 kts 273°
2026-05-03 21:24 26.07498 -80.16592 18 ft 0 kts 275°
2026-05-03 21:30 26.07499 -80.16593 18 ft 0 kts 275°
2026-05-03 21:30 26.07502 -80.16614 18 ft 5 kts 288°
2026-05-03 21:30 26.07507 -80.16624 19 ft 0 kts 301°
2026-05-03 21:31 26.07513 -80.16630 18 ft 3 kts 314°
2026-05-03 21:31 26.07538 -80.16643 17 ft 5 kts 341°
2026-05-03 21:32 26.07550 -80.16644 17 ft 1 kts
2026-05-03 21:32 26.07552 -80.16643 17 ft 0 kts
2026-05-03 21:33 26.07559 -80.16643 16 ft 3 kts
2026-05-03 21:33 26.07594 -80.16643 16 ft 6 kts
2026-05-03 21:34 26.07599 -80.16643 16 ft 0 kts
2026-05-03 21:37 26.07600 -80.16643 16 ft 1 kts
2026-05-03 21:37 26.07652 -80.16642 15 ft 11 kts
2026-05-03 21:37 26.07694 -80.16584 17 ft 11 kts 85°
2026-05-03 21:38 26.07695 -80.16546 16 ft 0 kts 91°
2026-05-03 21:38 26.07694 -80.16489 18 ft 31 kts 90°
2026-05-03 21:39 26.07692 -80.15956 17 ft 103 kts 90°
2026-05-03 21:39 26.07689 -80.14946 19 ft 155 kts 88°
2026-05-03 21:39 26.07698 -80.13720 654 ft 156 kts 86°
2026-05-03 21:39 26.07708 -80.12529 1380 ft 155 kts 86°
2026-05-03 21:40 26.07745 -80.11308 1875 ft 167 kts 86°
2026-05-03 21:40 26.07817 -80.09920 2142 ft 191 kts 79°
2026-05-03 21:40 26.08363 -80.08505 2524 ft 210 kts 56°
2026-05-03 21:40 26.09329 -80.07190 2921 ft 231 kts 37°
2026-05-03 21:41 26.10853 -80.06436 3324 ft 253 kts
2026-05-03 21:41 26.12644 -80.06033 3998 ft 271 kts 14°
2026-05-03 21:41 26.14476 -80.05369 3961 ft 275 kts 13°
2026-05-03 21:41 26.16332 -80.05123 3979 ft 267 kts 352°
2026-05-03 21:42 26.18125 -80.05613 3987 ft 267 kts 341°
2026-05-03 21:42 26.19889 -80.06266 4005 ft 267 kts 338°
2026-05-03 21:42 26.21497 -80.07260 4018 ft 265 kts 319°
2026-05-03 21:42 26.22732 -80.08746 4006 ft 263 kts 302°
2026-05-03 21:43 26.23542 -80.10563 4003 ft 262 kts 289°
2026-05-03 21:43 26.24172 -80.12463 3995 ft 261 kts 290°
2026-05-03 21:43 26.24852 -80.14337 4017 ft 261 kts 291°
2026-05-03 21:43 26.25602 -80.16190 3998 ft 263 kts 298°
2026-05-03 21:44 26.26595 -80.17904 4015 ft 263 kts 302°
2026-05-03 21:44 26.27580 -80.19612 4026 ft 262 kts 301°
2026-05-03 21:44 26.28555 -80.21325 4006 ft 261 kts 301°
2026-05-03 21:44 26.29525 -80.23048 4016 ft 263 kts 301°
2026-05-03 21:45 26.30499 -80.24768 4031 ft 262 kts 301°
2026-05-03 21:45 26.31485 -80.26492 4717 ft 263 kts 301°
2026-05-03 21:45 26.32474 -80.28222 5816 ft 267 kts 300°
2026-05-03 21:45 26.33473 -80.29983 6849 ft 270 kts 300°
2026-05-03 21:46 26.34478 -80.31762 7801 ft 272 kts 299°
2026-05-03 21:46 26.35470 -80.33529 8720 ft 273 kts 299°
2026-05-03 21:46 26.36496 -80.35361 9606 ft 277 kts 299°
2026-05-03 21:46 26.37520 -80.37189 10452 ft 279 kts 299°
2026-05-03 21:47 26.38575 -80.39057 10848 ft 300 kts 299°
2026-05-03 21:47 26.39745 -80.41120 11124 ft 321 kts 299°
2026-05-03 21:47 26.40960 -80.43255 11721 ft 329 kts 299°
2026-05-03 21:47 26.42177 -80.45395 12438 ft 333 kts 299°
2026-05-03 21:48 26.43439 -80.47618 13194 ft 336 kts 299°
2026-05-03 21:48 26.44679 -80.49803 13899 ft 339 kts 298°
2026-05-03 21:48 26.45943 -80.52034 14538 ft 342 kts 298°
2026-05-03 21:48 26.47357 -80.54190 15153 ft 349 kts 308°
2026-05-03 21:49 26.49191 -80.56006 15792 ft 359 kts 320°
2026-05-03 21:49 26.51416 -80.57355 16444 ft 370 kts 333°
2026-05-03 21:49 26.53906 -80.58215 17037 ft 378 kts 338°
2026-05-03 21:49 26.56450 -80.59015 17644 ft 381 kts 338°
2026-05-03 21:50 26.59010 -80.59824 18243 ft 385 kts 338°
2026-05-03 21:50 26.61597 -80.60644 18770 ft 388 kts 338°
2026-05-03 21:50 26.64212 -80.61471 19294 ft 392 kts 337°
2026-05-03 21:50 26.66847 -80.62307 19807 ft 396 kts 337°
2026-05-03 21:51 26.69508 -80.63155 20330 ft 399 kts 337°
2026-05-03 21:51 26.72191 -80.64011 20825 ft 403 kts 336°
2026-05-03 21:51 26.74902 -80.64876 21324 ft 407 kts 336°
2026-05-03 21:51 26.77635 -80.65747 21815 ft 410 kts 336°
2026-05-03 21:52 26.80394 -80.66625 22285 ft 414 kts 336°
2026-05-03 21:52 26.83176 -80.67510 22763 ft 418 kts 336°
2026-05-03 21:52 26.85986 -80.68404 23229 ft 421 kts 336°
2026-05-03 21:52 26.88812 -80.69307 23689 ft 425 kts 336°
2026-05-03 21:53 26.91665 -80.70225 24086 ft 427 kts 335°
2026-05-03 21:53 26.94502 -80.71213 24493 ft 428 kts 334°
2026-05-03 21:53 26.97337 -80.72275 24909 ft 430 kts 333°
2026-05-03 21:53 27.00161 -80.73376 25316 ft 432 kts 332°
2026-05-03 21:54 27.03005 -80.74497 25726 ft 434 kts 332°
2026-05-03 21:54 27.05864 -80.75617 26131 ft 437 kts 332°
2026-05-03 21:54 27.08744 -80.76731 26538 ft 440 kts 332°
2026-05-03 21:54 27.11653 -80.77839 26930 ft 443 kts 333°
2026-05-03 21:55 27.14576 -80.78939 27331 ft 445 kts 333°
2026-05-03 21:55 27.17532 -80.80047 27745 ft 448 kts 333°
2026-05-03 21:55 27.20500 -80.81162 28172 ft 451 kts 333°
2026-05-03 21:55 27.23436 -80.82274 28562 ft 453 kts 332°
2026-05-03 21:56 27.26432 -80.83412 28944 ft 456 kts 332°
2026-05-03 21:56 27.29444 -80.84558 29043 ft 457 kts 332°
2026-05-03 21:56 27.35448 -80.86872 29052 ft 455 kts 332°
2026-05-03 21:57 27.41393 -80.89323 29058 ft 453 kts 330°
2026-05-03 21:57 27.47295 -80.91802 29060 ft 452 kts 331°
2026-05-03 21:58 27.53203 -80.94247 29068 ft 453 kts 331°
2026-05-03 21:58 27.59128 -80.96684 29073 ft 453 kts 331°
2026-05-03 21:59 27.65016 -80.99113 29072 ft 453 kts 331°
2026-05-03 21:59 27.70936 -81.01568 29073 ft 454 kts 331°
2026-05-03 22:00 27.76862 -81.04023 29076 ft 454 kts 331°
2026-05-03 22:00 27.82794 -81.06479 29076 ft 454 kts 331°
2026-05-03 22:01 27.88729 -81.08934 29068 ft 455 kts 331°
2026-05-03 22:01 27.94670 -81.11398 29078 ft 455 kts 331°
2026-05-03 22:02 28.00607 -81.13871 29089 ft 455 kts 331°
2026-05-03 22:02 28.06568 -81.16302 29092 ft 457 kts 332°
2026-05-03 22:03 28.12649 -81.18497 29090 ft 459 kts 334°
2026-05-03 22:03 28.18754 -81.20614 29097 ft 459 kts 334°
2026-05-03 22:04 28.24841 -81.22779 29101 ft 458 kts 333°
2026-05-03 22:04 28.30903 -81.24984 29089 ft 457 kts 333°
2026-05-03 22:05 28.35938 -81.26826 29084 ft 457 kts 333°
2026-05-03 22:05 28.41988 -81.29036 29080 ft 457 kts 333°
2026-05-03 22:06 28.48042 -81.31245 29083 ft 457 kts 333°
2026-05-03 22:06 28.54142 -81.33325 29091 ft 464 kts 340°
2026-05-03 22:07 28.60662 -81.34064 29093 ft 473 kts 347°
2026-05-03 22:07 28.67229 -81.34614 29091 ft 473 kts 347°
2026-05-03 22:08 28.73791 -81.35177 29095 ft 473 kts 347°
2026-05-03 22:08 28.80352 -81.35745 29092 ft 473 kts 347°
2026-05-03 22:09 28.86911 -81.36318 29096 ft 473 kts 347°
2026-05-03 22:10 28.96744 -81.37185 29121 ft 472 kts 347°
2026-05-03 22:10 29.03287 -81.37793 29120 ft 471 kts 346°
2026-05-03 22:10 29.06523 -81.38138 28851 ft 463 kts 346°
2026-05-03 22:11 29.09705 -81.38496 28334 ft 457 kts 345°
2026-05-03 22:11 29.12845 -81.38857 27822 ft 451 kts 345°
2026-05-03 22:11 29.15948 -81.39213 27344 ft 445 kts 345°
2026-05-03 22:11 29.19011 -81.39561 26876 ft 440 kts 345°
2026-05-03 22:12 29.22050 -81.39901 26413 ft 436 kts 345°
2026-05-03 22:12 29.25057 -81.40235 25964 ft 432 kts 346°
2026-05-03 22:12 29.28038 -81.40564 25517 ft 428 kts 346°
2026-05-03 22:12 29.30989 -81.40888 25078 ft 425 kts 346°
2026-05-03 22:13 29.33919 -81.41209 24642 ft 421 kts 346°
2026-05-03 22:13 29.36827 -81.41527 24221 ft 418 kts 346°
2026-05-03 22:13 29.39706 -81.41845 23868 ft 414 kts 346°
2026-05-03 22:13 29.42569 -81.42167 23505 ft 412 kts 346°
2026-05-03 22:14 29.45411 -81.42481 23114 ft 409 kts 346°
2026-05-03 22:14 29.48239 -81.42788 22729 ft 407 kts 346°
2026-05-03 22:14 29.51046 -81.43093 22345 ft 404 kts 346°
2026-05-03 22:14 29.53840 -81.43399 21965 ft 402 kts 346°
2026-05-03 22:15 29.56549 -81.43952 21592 ft 389 kts 335°
2026-05-03 22:15 29.59011 -81.45088 21223 ft 375 kts 323°
2026-05-03 22:15 29.61154 -81.46707 20858 ft 363 kts 313°
2026-05-03 22:15 29.62964 -81.48678 20496 ft 357 kts 307°
2026-05-03 22:16 29.64708 -81.50703 20143 ft 356 kts 307°
2026-05-03 22:16 29.66451 -81.52713 19794 ft 354 kts 308°
2026-05-03 22:16 29.68190 -81.54715 19443 ft 353 kts 308°
2026-05-03 22:16 29.69924 -81.56710 19100 ft 352 kts 308°
2026-05-03 22:17 29.71652 -81.58697 18758 ft 351 kts 308°
2026-05-03 22:17 29.73372 -81.60681 18416 ft 349 kts 308°
2026-05-03 22:17 29.75106 -81.62635 18026 ft 351 kts 313°
2026-05-03 22:17 29.77171 -81.64186 17641 ft 360 kts 328°
2026-05-03 22:18 29.79586 -81.65061 17259 ft 370 kts 342°
2026-05-03 22:18 29.82101 -81.65610 16875 ft 367 kts 342°
2026-05-03 22:18 29.84615 -81.65961 16502 ft 370 kts 348°
2026-05-03 22:18 29.87175 -81.66147 16133 ft 366 kts 350°
2026-05-03 22:19 29.89703 -81.66257 15757 ft 361 kts 351°
2026-05-03 22:19 29.92189 -81.66343 15405 ft 355 kts 351°
2026-05-03 22:19 29.94641 -81.66457 15048 ft 349 kts 349°
2026-05-03 22:19 29.97035 -81.66689 14694 ft 342 kts 347°
2026-05-03 22:20 29.99382 -81.67003 14342 ft 337 kts 345°
2026-05-03 22:20 30.01698 -81.67352 14000 ft 334 kts 345°
2026-05-03 22:20 30.03980 -81.67700 13615 ft 325 kts 345°
2026-05-03 22:20 30.06182 -81.68022 13229 ft 315 kts 346°
2026-05-03 22:21 30.08341 -81.68331 12848 ft 309 kts 346°
2026-05-03 22:21 30.10466 -81.68632 12479 ft 313 kts 346°
2026-05-03 22:21 30.12717 -81.68976 12108 ft 333 kts 346°
2026-05-03 22:21 30.15003 -81.69320 11731 ft 327 kts 347°
2026-05-03 22:22 30.17234 -81.69618 11369 ft 318 kts 348°
2026-05-03 22:22 30.19401 -81.69916 11005 ft 308 kts 343°
2026-05-03 22:22 30.21429 -81.70543 10648 ft 298 kts 338°
2026-05-03 22:22 30.23396 -81.71215 10299 ft 292 kts 338°
2026-05-03 22:23 30.25325 -81.71889 9943 ft 287 kts 338°
2026-05-03 22:23 30.27199 -81.72547 9551 ft 276 kts 338°
2026-05-03 22:23 30.29011 -81.73183 9161 ft 269 kts 338°
2026-05-03 22:23 30.30785 -81.73805 8703 ft 264 kts 338°
2026-05-03 22:24 30.32556 -81.74442 8184 ft 273 kts 338°
2026-05-03 22:24 30.34397 -81.75129 7647 ft 282 kts 338°
2026-05-03 22:24 30.36274 -81.75846 7107 ft 283 kts 338°
2026-05-03 22:24 30.38120 -81.76572 6546 ft 277 kts 338°
2026-05-03 22:25 30.39919 -81.77319 6010 ft 272 kts 337°
2026-05-03 22:25 30.41662 -81.78061 5467 ft 269 kts 337°
2026-05-03 22:25 30.43271 -81.79077 4928 ft 261 kts 316°
2026-05-03 22:25 30.44275 -81.80770 4365 ft 256 kts 288°
2026-05-03 22:26 30.44418 -81.82794 3808 ft 254 kts 259°
2026-05-03 22:26 30.43698 -81.84649 3254 ft 255 kts 236°
2026-05-03 22:26 30.42645 -81.86299 2698 ft 255 kts 233°
2026-05-03 22:26 30.41561 -81.87929 2167 ft 255 kts 237°
2026-05-03 22:27 30.41020 -81.89745 2025 ft 228 kts 276°
2026-05-03 22:27 30.41585 -81.91316 2036 ft 204 kts 321°
2026-05-03 22:27 30.42827 -81.91879 2038 ft 199 kts
2026-05-03 22:27 30.44010 -81.91213 2070 ft 192 kts 49°
2026-05-03 22:28 30.44349 -81.89780 2054 ft 191 kts 96°
2026-05-03 22:28 30.44062 -81.88275 2031 ft 190 kts 92°
2026-05-03 22:28 30.44392 -81.86838 2029 ft 186 kts 61°
2026-05-03 22:28 30.44884 -81.85446 2034 ft 186 kts 68°
2026-05-03 22:29 30.45318 -81.84027 2041 ft 186 kts 68°
2026-05-03 22:29 30.45752 -81.82609 1970 ft 188 kts 67°
2026-05-03 22:29 30.46188 -81.81192 1815 ft 185 kts 68°
2026-05-03 22:29 30.46614 -81.79804 1798 ft 178 kts 69°
2026-05-03 22:30 30.47025 -81.78470 1637 ft 173 kts 69°
2026-05-03 22:30 30.47420 -81.77189 1407 ft 162 kts 68°
2026-05-03 22:30 30.47777 -81.75978 1158 ft 154 kts 70°
2026-05-03 22:30 30.48104 -81.74866 1021 ft 141 kts 68°
2026-05-03 22:31 30.48430 -81.73849 769 ft 133 kts 69°
2026-05-03 22:31 30.48742 -81.72855 583 ft 129 kts 68°
2026-05-03 22:31 30.49045 -81.71883 438 ft 126 kts 71°
2026-05-03 22:31 30.49350 -81.70914 248 ft 126 kts 72°
2026-05-03 22:32 30.49645 -81.69947 99 ft 127 kts 74°
2026-05-03 22:32 30.49898 -81.69067 39 ft 98 kts 70°
2026-05-03 22:32 30.50071 -81.68507 38 ft 50 kts 69°
2026-05-03 22:32 30.50162 -81.68207 40 ft 10 kts 75°
2026-05-03 22:33 30.50145 -81.68155 38 ft 11 kts 73°
2026-05-03 22:33 30.50141 -81.68039 38 ft 13 kts 135°
2026-05-03 22:33 30.50067 -81.68007 38 ft 2 kts 162°
2026-05-03 22:33 30.50059 -81.68011 38 ft 2 kts 220°
2026-05-03 22:34 30.50030 -81.68093 38 ft 20 kts 251°
2026-05-03 22:34 30.50001 -81.68259 37 ft 20 kts 238°
2026-05-03 22:34 30.49932 -81.68409 36 ft 19 kts 240°
2026-05-03 22:34 30.49816 -81.68460 36 ft 16 kts 188°
2026-05-03 22:35 30.49694 -81.68487 36 ft 20 kts 189°
2026-05-03 22:35 30.49551 -81.68518 37 ft 22 kts 191°
2026-05-03 22:35 30.49418 -81.68548 39 ft 12 kts 198°
2026-05-03 22:35 30.49395 -81.68558 39 ft 0 kts 200°